Temp
6 5 5 4 4 4 4 4 3 3 3 3 4 3 3 2 2 3 5 7 8 9 11 11 11 12 12
5 4 4 4 3 3 3 3 3 2 2 2 2 1 1 1 3 4 5 6 7 7 10 11 11 12 12
5 4 3 3 2 2 2 2 2 2 2 2 1 1 1 1 3 4 4 4 7 7 7 10 10 11 11
4 3 3 2 2 2 1 1 1 2 1 1 1 1 1 1 2 2 3 3 4 6 7 7 8 8 9
3 2 2 1 1 1 1 1 1 1 1 1 0 0 0 1 -0 -0 1 1 3 4 6 6 7 7 7
2 2 2 2 1 0 1 -0 1 -0 -0 -0 -0 -1 -0 -0 -1 -1 -0 -0 1 2 3 4 5 5 6
2 3 3 3 2 1 1 0 -0 -1 -1 -2 -1 -1 -1 -1 -1 -1 -1 -1 -0 -0 1 2 3 3 4
2 2 2 2 1 1 0 -0 -1 -1 -1 -1 -2 -2 -2 -2 -3 -2 -2 -1 -1 -1 -1 -1 -0 2 2
0 1 1 1 0 0 -1 -2 -2 -2 -2 -2 -2 -2 -2 -2 -2 -3 -3 -3 -3 -2 -2 -2 -0 0 0
-1 -1 -1 -1 -1 -1 -1 -1 -2 -2 -2 -2 -3 -3 -3 -3 -3 -3 -2 -2 -2 -2 -2 -3 -2 -0 -0
-1 -1 -1 -2 -1 -1 -1 -1 -1 -2 -2 -2 -3 -3 -3 -3 -3 -3 -3 -2 -2 -2 -2 -2 -1 -1 -1
-1 -2 -2 -2 -2 -2 -2 -2 -2 -2 -2 -3 -3 -4 -4 -4 -4 -3 -3 -3 -3 -3 -3 -3 -2 -2 -1
-2 -2 -2 -2 -2 -3 -3 -3 -3 -3 -3 -4 -4 -4 -5 -5 -5 -5 -5 -4 -3 -3 -3 -3 -3 -3 -2
-1 -2 -2 -2 -3 -3 -3 -3 -4 -4 -4 -4 -4 -5 -5 -5 -6 -6 -4 -4 -4 -4 -4 -3 -3 -3 -2
-2 -2 -2 -3 -3 -3 -3 -4 -4 -4 -4 -4 -5 -5 -5 -5 -6 -4 -4 -4 -3 -4 -4 -4 -3 -3 -3
-2 -2 -2 -3 -3 -4 -4 -4 -4 -4 -4 -5 -5 -5 -5 -3 -4 -5 -5 -4 -4 -4 -4 -5 -4 -3 -3
-2 -2 -2 -3 -4 -4 -4 -5 -5 -5 -4 -5 -5 -6 -5 -4 -4 -4 -4 -4 -4 -4 -4 -5 -5 -4 -3
Height
822 823 824 822 823 825 825 826 827 826 826 825 824 824 823 820 821 818 815 813 812 806 799 798 801 805 807
822 822 822 820 822 822 822 825 826 825 825 825 825 824 824 819 818 816 816 814 812 807 801 799 802 803 806
818 820 819 821 820 819 821 823 823 823 824 824 825 824 823 820 818 816 815 815 813 810 806 803 803 806 807
815 816 817 819 818 818 820 820 821 822 823 824 824 823 822 821 819 816 815 816 814 813 811 808 808 809 810
813 815 815 816 818 817 817 818 819 821 823 824 823 822 822 821 820 817 816 817 816 814 814 813 813 814 814
810 811 812 814 816 817 814 816 819 819 821 822 822 822 822 821 821 819 819 818 817 817 815 815 816 817 818
808 809 810 811 812 815 813 812 815 819 820 821 821 821 822 822 822 821 821 820 819 818 818 817 817 818 819
806 807 808 809 810 811 813 812 815 817 818 820 819 819 822 822 821 821 822 821 821 820 820 818 818 818 820
805 806 807 808 809 810 811 813 815 816 818 819 819 819 820 820 821 821 821 820 821 821 821 820 819 820 821
806 806 808 809 810 810 811 812 813 816 817 819 818 819 819 819 819 819 820 820 820 820 820 820 820 820 821
806 807 808 810 809 809 810 811 812 813 815 816 817 817 817 817 818 818 818 818 818 819 819 819 819 819 820
805 806 807 809 809 809 810 811 811 813 814 815 816 817 818 816 816 816 816 816 816 817 817 818 818 818 818
803 804 806 807 808 809 809 810 811 812 813 814 815 816 817 816 815 815 815 814 814 814 814 816 816 816 816
800 802 803 805 806 807 808 809 810 811 811 813 814 814 814 814 815 814 813 813 812 812 812 813 813 812 813
797 799 801 802 803 804 806 806 807 808 809 810 811 812 812 812 812 810 810 809 809 809 809 808 808 808 809
794 796 797 798 800 801 802 803 804 805 806 807 809 810 810 807 807 806 807 806 806 805 805 804 803 805 805
789 791 792 794 795 797 798 799 800 801 802 803 805 807 808 806 804 804 804 803 803 803 803 802 800 800 800
Wind_Speed
7 9 10 10 9 6 2 2 3 2 1 0 2 3 5 4 7 9 7 8 13 9 8 7 14 15 15
7 7 9 11 10 6 3 3 4 3 3 3 5 4 5 7 5 6 7 7 8 16 14 11 7 9 16
7 8 9 12 11 8 6 5 5 4 2 1 3 2 6 7 6 5 5 7 5 9 19 23 25 19 20
9 8 8 9 10 8 7 6 5 4 4 4 4 3 4 6 7 5 3 4 6 4 8 15 21 24 25
6 5 6 5 8 7 5 6 4 4 4 4 3 2 1 4 10 9 5 3 3 3 4 6 8 10 15
7 6 7 6 6 6 7 4 1 4 4 4 2 0 2 4 6 7 8 5 4 3 4 6 6 6 6
7 8 7 9 8 8 7 6 4 4 2 3 3 2 3 6 5 6 7 7 8 7 4 4 5 5 5
7 7 7 7 8 7 7 6 5 3 3 2 3 3 4 5 4 5 5 8 8 8 7 6 7 6 6
4 5 5 6 6 7 8 7 3 3 3 3 4 4 5 6 4 6 3 5 5 5 5 4 6 6 6
6 6 6 5 6 5 6 6 4 2 6 4 4 3 2 5 7 7 6 2 1 0 2 2 2 4 5
5 5 6 5 3 4 5 4 5 3 5 4 3 3 3 2 5 8 8 6 5 3 3 4 3 2 3
7 6 7 7 6 5 4 4 4 3 5 4 2 3 2 2 2 3 6 7 6 6 6 6 4 2 4
9 9 8 7 8 7 5 4 3 3 4 5 5 5 5 3 2 2 3 4 6 6 6 8 8 7 6
10 9 8 9 10 10 8 6 4 5 6 5 5 4 4 6 7 8 8 4 2 3 8 12 10 11 11
11 11 11 11 12 12 11 9 7 5 5 6 6 7 9 10 10 12 12 12 12 12 13 15 12 11 11
15 14 13 14 13 13 13 13 11 10 9 8 7 6 7 9 14 14 12 13 11 10 10 11 14 9 9
18 18 17 16 15 16 15 14 13 12 11 10 10 8 4 3 5 10 11 9 8 9 11 13 15 18 19
Wind_Direction
231 226 221 219 220 226 236 234 179 134 102 184 256 291 306 10 4 8 8 11 2 7 27 187 207 216 219
229 219 215 211 215 219 214 202 191 86 81 72 59 65 35 24 359 354 356 8 10 35 77 111 172 183 181
224 228 222 213 206 208 213 209 210 234 245 260 83 44 17 4 347 352 358 10 20 35 70 104 100 113 124
223 212 215 218 211 207 203 212 223 248 265 269 251 270 319 345 348 357 10 22 28 50 65 83 108 109 112
208 199 200 188 211 207 193 201 227 253 268 258 262 289 356 30 27 32 43 54 68 69 107 97 103 101 105
215 212 213 212 214 210 176 168 198 235 226 237 217 157 76 72 45 41 44 56 74 96 105 110 128 126 128
227 224 232 229 209 204 190 175 174 208 198 214 204 179 144 94 69 55 62 73 72 73 99 131 134 135 148
228 231 225 213 200 204 197 171 166 185 185 208 198 190 191 168 81 81 77 78 76 72 75 97 114 145 153
126 143 160 174 181 176 165 160 158 188 199 195 202 200 209 209 193 130 124 88 80 79 78 74 120 132 134
137 137 149 163 181 189 188 176 142 161 208 198 192 188 203 219 215 209 227 224 157 95 87 103 124 161 176
181 166 171 189 184 174 171 183 174 177 183 183 203 214 207 201 240 235 235 234 253 247 205 232 230 208 212
201 201 202 207 193 176 169 171 180 195 193 211 244 225 244 253 232 251 250 262 249 242 243 243 229 240 259
212 216 217 212 207 199 195 202 214 227 225 240 245 250 255 258 279 263 292 249 257 276 252 244 254 271 280
224 221 218 213 212 212 213 218 234 243 237 237 240 251 259 262 266 272 265 266 235 229 275 282 277 277 277
230 225 223 219 216 213 217 214 214 200 201 217 234 255 264 265 267 266 267 268 269 275 279 284 280 273 272
234 232 231 225 221 219 220 221 226 229 222 227 239 257 284 282 253 255 262 267 274 270 271 273 281 268 275
238 239 238 233 226 225 226 226 231 236 236 231 229 224 231 252 268 238 244 261 268 271 272 270 275 286 290